This is the latest recevied weather packets stored in our database for station/object N3TTT-13. If no packets are shown the sender has not sent any weather packets the latest 10 day(s).
| Time | Temp. | Humidity | Pressure | Rain* | Wind** | Luminosity | Snow |
|---|---|---|---|---|---|---|---|
| 1777075353 | 13.89° C | 75% | 1009.8 hPa | 0 mm | - | 0 W/m² | - |
| 1777075049 | 13.89° C | 76% | 1009.8 hPa | 0 mm | - | 0 W/m² | - |
| 1777074745 | 13.89° C | 75% | 1009.6 hPa | 0 mm | - | 0 W/m² | - |
| 1777074440 | 13.89° C | 74% | 1009.7 hPa | 0 mm | - | 0 W/m² | - |
| 1777074137 | 13.89° C | 73% | 1009.6 hPa | 0 mm | - | 0 W/m² | - |
| 1777073834 | 14.44° C | 71% | 1009.4 hPa | 0 mm | - | 1 W/m² | - |
| 1777073529 | 14.44° C | 70% | 1009.4 hPa | 0 mm | - | 1 W/m² | - |
| 1777073225 | 14.44° C | 69% | 1009.1 hPa | 0 mm | - | 3 W/m² | - |
| 1777072921 | 14.44° C | 68% | 1009.2 hPa | 0 mm | - | 5 W/m² | - |
| 1777072616 | 15° C | 66% | 1008.7 hPa | 0 mm | - | 5 W/m² | - |
| 1777072310 | 15° C | 63% | 1008.8 hPa | 0 mm | - | 7 W/m² | - |
| 1777072005 | 15° C | 62% | 1008.7 hPa | 0 mm | - | 9 W/m² | - |
| 1777071701 | 15.56° C | 59% | 1008.8 hPa | 0 mm | - | 6 W/m² | - |
| 1777071397 | 15.56° C | 57% | 1009.1 hPa | 0 mm | - | 6 W/m² | - |
| 1777071092 | 15.56° C | 55% | 1009 hPa | 0 mm | - | 12 W/m² | - |
| 1777070789 | 16.11° C | 54% | 1008.7 hPa | 0 mm | - | 24 W/m² | - |
| 1777070487 | 16.11° C | 54% | 1008.7 hPa | 0 mm | - | 16 W/m² | - |
| 1777070185 | 16.11° C | 54% | 1009.3 hPa | 0 mm | - | 22 W/m² | - |
| 1777069880 | 16.11° C | 55% | 1009.4 hPa | 0 mm | - | 30 W/m² | - |
| 1777069579 | 16.11° C | 55% | 1009.6 hPa | 0 mm | - | 39 W/m² | - |
| 1777069275 | 16.11° C | 53% | 1009.6 hPa | 0 mm | - | 53 W/m² | - |
| 1777068971 | 16.11° C | 54% | 1009.7 hPa | 0 mm | - | 57 W/m² | - |
| 1777068668 | 16.11° C | 53% | 1009.8 hPa | 0 mm | - | 59 W/m² | - |
| 1777068362 | 16.67° C | 52% | 1009.7 hPa | 0 mm | - | 66 W/m² | - |
| 1777068057 | 16.67° C | 51% | 1009.8 hPa | 0 mm | - | 65 W/m² | - |
* Rain latest hour (hover to see other rain measurements)
** Current wind speed in m/s (hover to see current wind gust speed)